Location: Moscow
(55.7500°N, 37.5830°E)
Time: 17:43:08
(UTC+03:00)

ISS - Pass Details

Date: 16 March 2026
Orbit: 416 x 425 km, 51.6° (Epoch: 19 April)

Event Time Altitude Azimuth Distance (km) Brightness Sun altitude
Rises 21:00:34 0° 255° (WSW) 2,386 0.8 -20.4°
Reaches altitude 10° 21:02:45 10° 248° (WSW) 1,518 -0.5 -20.7°
Enters shadow 21:04:59 32° 219° (SW) 760 -2.4 -21.0°
